"Pseudo-MPEC" for A10c52D

Created 2019 Feb 15 22:18:03 UT using Find_Orb

Click here for an explanation of pseudo-MPECs

 
 Astrometry: 
     A10c52D  C2019 02 09?Y$Astrometry@yFka^\'!k:A6redacted;+RxFMl8=JUJwr,,06T08
     A10c52D  C2019 02 09\F3@click(nuM.=no;:Ba-91b=/here5I%u3pD,'1c%!7h=T\fpPT08
     A10c52D  C2019 02 09]VCtRforiw1d1'jUgKfm5EngfZ#R*TobkL_Ek4wx.^CcKn)?])3cT08
     A10c52D  C2019 02 09DN,((!DM')s'ta%w`35)Q`Q4%5qmxhFvR%xexplanation.I%5SRT08

Station data:
(T08) ATLAS-MLO, Mauna Loa  (N19.535772 W155.576400)  US/Hawaii.

Orbital elements:  A10c52D
   Perihelion 2019 Jan 16.036499 +/- 54.1 TT =  0:52:33 (JD 2458499.536499)
Epoch 2019 Feb 10.0 TT = JDT 2458524.5   Earth MOID: 0.4998   Ma: 0.0273
M   5.60805652 +/- 47               (J2000 ecliptic)          AutoNEOCP
n   0.22465023 +/- 0.271            Peri.  224.44680 +/- 100
a   2.67997942 +/- 2.15             Node   275.13590 +/- 49
e   0.4628811 +/- 0.156             Incl.   16.61413 +/- 7
P   4.39                   H 17.6   G  0.15   U 11.9  SR
q 1.43946744 +/- 0.384    Q 3.92049140 +/- 1.25
From 4 observations 2019 Feb. 9 (38.4 min); mean residual 0".85
Residuals in arcseconds: 
190209 T08  .41+  .55+    190209 T08  1.3-  .86-    
190209 T08  .36-  .67-    190209 T08  1.2+  1.0+    

Ephemerides (geocentric):
Date (UTC) HH   RA              Dec         delta   r     elong  mag " sig PA
---- -- -- --  -------------   -----------  ------ ------ -----  --- ---- ---
2019 02 15 22  11 12 13.986   -35 36 47.60  .63613 1.4704 128.5 18.8  39d 173
2019 02 15 23  11 12 13.181   -35 37 36.59  .63611 1.4705 128.5 18.8  39d 173
2019 02 16 00  11 12 12.373   -35 38 25.50  .63609 1.4706 128.5 18.8  39d 173
2019 02 16 01  11 12 11.562   -35 39 14.33  .63607 1.4706 128.5 18.8  39d 172
2019 02 16 02  11 12 10.747   -35 40 03.08  .63605 1.4707 128.5 18.8  39d 172
2019 02 16 03  11 12 09.928   -35 40 51.74  .63603 1.4708 128.5 18.8  39d 172
2019 02 16 04  11 12 09.107   -35 41 40.33  .63601 1.4709 128.6 18.8  39d 172
2019 02 16 05  11 12 08.282   -35 42 28.83  .63599 1.4710 128.6 18.8  39d 172
2019 02 16 06  11 12 07.453   -35 43 17.25  .63597 1.4711 128.6 18.8  39d 172
2019 02 16 07  11 12 06.622   -35 44 05.58  .63595 1.4711 128.6 18.8  39d 172
2019 02 16 08  11 12 05.787   -35 44 53.84  .63593 1.4712 128.6 18.8  39d 172
2019 02 16 09  11 12 04.948   -35 45 42.01  .63592 1.4713 128.6 18.8  39d 172
2019 02 16 10  11 12 04.107   -35 46 30.10  .63590 1.4714 128.7 18.8  39d 172
2019 02 16 11  11 12 03.262   -35 47 18.11  .63588 1.4715 128.7 18.8  39d 171
2019 02 16 12  11 12 02.413   -35 48 06.03  .63586 1.4716 128.7 18.8  39d 171
2019 02 16 13  11 12 01.562   -35 48 53.87  .63585 1.4716 128.7 18.8  39d 171
2019 02 16 14  11 12 00.707   -35 49 41.63  .63583 1.4717 128.7 18.8  39d 171
2019 02 16 15  11 11 59.849   -35 50 29.31  .63581 1.4718 128.7 18.8  39d 171
2019 02 16 16  11 11 58.987   -35 51 16.91  .63579 1.4719 128.8 18.8  39d 171
2019 02 16 17  11 11 58.123   -35 52 04.42  .63578 1.4720 128.8 18.8  39d 171
2019 02 16 18  11 11 57.255   -35 52 51.85  .63576 1.4721 128.8 18.8  39d 171
2019 02 16 19  11 11 56.383   -35 53 39.19  .63574 1.4721 128.8 18.8  39d 171
2019 02 16 20  11 11 55.509   -35 54 26.46  .63573 1.4722 128.8 18.8  39d 171
2019 02 16 21  11 11 54.631   -35 55 13.64  .63571 1.4723 128.8 18.8  39d 171
2019 02 16 22  11 11 53.750   -35 56 00.74  .63569 1.4724 128.8 18.8  39d 171
2019 02 16 23  11 11 52.866   -35 56 47.75  .63568 1.4725 128.9 18.8  39d 171
2019 02 17 00  11 11 51.978   -35 57 34.69  .63566 1.4726 128.9 18.8  39d 171
2019 02 17 01  11 11 51.087   -35 58 21.53  .63565 1.4727 128.9 18.8  39d 171
2019 02 17 02  11 11 50.193   -35 59 08.30  .63563 1.4727 128.9 18.8  39d 171
2019 02 17 03  11 11 49.296   -35 59 54.98  .63562 1.4728 128.9 18.8  39d 171
2019 02 17 04  11 11 48.396   -36 00 41.59  .63560 1.4729 128.9 18.8  39d 171
2019 02 17 05  11 11 47.492   -36 01 28.10  .63559 1.4730 129.0 18.8  39d 171
2019 02 17 06  11 11 46.585   -36 02 14.54  .63557 1.4731 129.0 18.8  39d 172
2019 02 17 07  11 11 45.675   -36 03 00.89  .63556 1.4732 129.0 18.8  40d 172
2019 02 17 08  11 11 44.762   -36 03 47.15  .63554 1.4732 129.0 18.8  40d 173
2019 02 17 09  11 11 43.845   -36 04 33.34  .63553 1.4733 129.0 18.8  40d 174
2019 02 17 10  11 11 42.925   -36 05 19.44  .63551 1.4734 129.0 18.8  41d 175
2019 02 17 11  11 11 42.003   -36 06 05.46  .63550 1.4735 129.0 18.8  42d 176
2019 02 17 12  11 11 41.077   -36 06 51.39  .63549 1.4736 129.1 18.8  43d 176
2019 02 17 13  11 11 40.147   -36 07 37.24  .63547 1.4737 129.1 18.8  43d 176
2019 02 17 14  11 11 39.215   -36 08 23.01  .63546 1.4738 129.1 18.8  43d 176
2019 02 17 15  11 11 38.279   -36 09 08.69  .63545 1.4738 129.1 18.8  44d 175
2019 02 17 16  11 11 37.341   -36 09 54.29  .63543 1.4739 129.1 18.8  44d 175
2019 02 17 17  11 11 36.399   -36 10 39.80  .63542 1.4740 129.1 18.8  44d 174
2019 02 17 18  11 11 35.454   -36 11 25.24  .63541 1.4741 129.2 18.8  44d 174
2019 02 17 19  11 11 34.506   -36 12 10.58  .63539 1.4742 129.2 18.8  44d 173
2019 02 17 20  11 11 33.554   -36 12 55.85  .63538 1.4743 129.2 18.8  44d 173
2019 02 17 21  11 11 32.600   -36 13 41.03  .63537 1.4744 129.2 18.8  44d 172